Probability
19 10 23 39 35 3 0 0 0 0 0 0 0 0 0 0 0 3 3 3 0 6 19 48 65 71 71 77 84 77 65 61 68 61 68 68 65 68 58 61 61 65 55 65 68 68 65 65 61
13 16 32 32 16 0 0 0 0 0 3 3 0 0 0 3 3 3 3 3 3 6 16 29 74 74 77 74 71 77 77 74 77 68 71 71 68 58 58 52 55 48 52 55 61 61 65 61 61
16 23 32 32 3 0 0 0 0 0 0 0 0 0 0 6 3 3 3 0 6 3 26 52 71 77 71 71 77 74 77 74 71 65 61 61 68 58 65 61 61 52 58 61 61 58 55 55 55
29 29 29 10 0 0 0 0 0 0 0 0 0 0 3 3 3 3 3 0 3 6 10 48 74 74 74 74 81 77 74 68 71 65 68 58 58 61 58 68 58 55 52 58 61 55 52 45 52
32 19 6 3 0 0 0 0 0 0 0 0 0 0 3 3 3 3 0 0 6 6 10 26 68 71 77 77 81 74 71 68 61 71 77 65 61 52 48 52 45 52 52 58 65 55 52 48 52
29 16 3 0 0 0 0 0 3 0 0 0 0 0 0 3 3 3 0 0 3 6 6 32 61 68 71 74 77 74 68 65 65 55 61 55 55 55 55 55 55 65 61 58 65 65 61 58 52
32 13 3 0 0 0 0 0 3 0 0 0 0 0 0 3 6 3 3 3 3 3 10 16 29 39 58 68 65 74 74 74 71 65 58 58 52 58 55 61 65 55 58 55 58 55 55 55 52
26 13 0 0 0 0 0 0 3 0 3 3 0 0 3 6 3 3 3 3 3 3 13 13 19 19 26 32 48 61 68 58 68 61 58 55 55 58 55 65 61 58 52 55 52 52 52 55 52
13 13 0 0 0 0 0 3 3 3 3 0 0 0 6 6 3 0 3 6 6 10 13 10 13 23 29 23 23 42 45 42 55 55 58 61 55 39 48 42 48 55 55 52 52 58 52 52 52
10 0 3 0 0 0 0 3 3 3 6 3 3 3 3 3 3 3 3 6 10 10 13 19 16 19 23 19 32 45 35 52 58 55 48 48 58 55 35 48 52 48 55 52 52 52 48 48 42
3 3 3 3 3 3 0 0 3 3 3 3 3 10 6 3 0 0 0 3 6 10 10 13 13 16 19 32 29 39 48 55 52 55 48 55 48 48 45 52 55 52 39 32 42 39 39 35 35
3 3 3 3 3 3 0 0 0 0 3 6 6 10 13 13 3 0 3 6 10 13 16 16 19 26 42 29 23 35 39 42 48 58 58 58 58 55 58 61 42 45 35 42 35 48 35 35 35
6 3 0 6 10 3 0 0 0 6 6 6 10 10 10 13 13 6 6 13 16 16 19 23 23 45 55 55 39 29 42 39 42 52 48 45 52 52 35 58 52 39 39 35 39 48 55 52 45
6 3 0 0 3 10 0 3 3 16 16 16 13 16 10 13 10 16 26 23 23 26 29 23 23 35 48 55 52 45 29 48 32 35 35 39 35 48 45 42 42 39 45 39 45 39 52 45 45
0 0 3 0 3 3 3 3 3 16 16 23 19 16 16 19 19 26 35 39 32 32 32 32 26 23 32 32 26 29 32 23 26 35 35 48 35 42 45 45 42 42 48 55 55 45 48 45 42
0 0 3 3 0 3 0 0 23 23 29 26 19 16 23 29 29 35 39 42 42 39 42 39 13 19 23 35 35 19 26 26 32 35 35 39 42 45 58 42 39 48 42 45 58 55 42 48 48
0 0 0 3 3 3 3 3 32 26 29 26 23 16 26 35 39 32 32 39 45 55 52 55 42 29 23 35 39 32 39 42 29 35 35 42 39 35 45 45 39 52 42 52 48 39 52 48 48
0 0 0 6 6 6 3 3 23 26 29 29 26 29 29 35 48 39 42 39 45 52 52 58 55 58 48 35 52 48 39 42 35 29 42 45 45 52 45 39 48 42 42 61 65 55 65 65 61
0 0 3 6 6 10 6 3 10 23 29 29 39 35 32 42 39 42 42 39 45 48 58 58 55 58 65 65 55 58 48 42 29 35 29 42 52 48 61 39 65 58 61 65 48 55 48 48 55
0 0 6 10 10 3 3 3 10 23 26 29 32 39 42 42 45 48 48 42 52 52 55 65 55 58 65 65 71 65 58 48 35 39 48 45 45 58 42 65 48 58 68 61 58 58 45 42 45
0 0 0 3 6 6 3 13 10 19 23 26 32 32 32 42 39 42 52 52 45 52 55 48 61 58 65 68 58 55 65 55 39 48 55 52 52 48 61 61 52 61 45 45 68 58 55 35 29
0 0 0 3 6 3 3 3 10 16 26 32 32 35 35 42 42 52 48 48 52 48 52 65 65 61 61 68 61 48 61 52 58 61 52 45 48 52 61 45 55 61 55 61 55 48 58 52 39
3 3 3 3 3 3 3 0 3 16 19 26 35 35 39 45 42 42 52 52 52 45 52 52 65 58 55 65 68 61 45 55 55 55 55 65 52 48 48 55 58 65 65 61 65 68 55 45 42
0 3 3 3 3 3 3 0 3 10 19 23 19 29 45 39 45 45 45 52 45 42 42 48 68 61 61 61 58 61 61 61 61 61 58 58 55 52 52 52 58 58 61 61 68 71 61 65 55
0 0 0 0 0 0 3 0 3 10 13 13 19 26 35 39 45 48 48 45 52 48 48 45 65 68 65 61 58 55 61 65 65 61 61 61 48 52 58 52 61 61 65 58 58 65 61 58 58
0 0 0 0 0 0 0 0 3 6 6 13 16 26 35 35 39 42 39 45 45 52 52 52 65 71 65 65 65 65 65 61 58 61 55 55 55 48 55 61 68 68 65 58 61 58 61 65 65
0 0 0 0 0 0 0 0 3 10 13 13 16 23 26 29 35 39 35 39 45 52 52 52 55 52 52 52 61 61 58 55 55 45 48 48 52 48 55 55 55 58 61 61 65 58 61 65 58
0 0 0 0 0 0 0 0 6 10 10 13 16 19 32 35 42 39 45 39 42 39 45 45 52 55 52 48 45 45 52 55 45 48 45 55 52 52 55 52 52 55 58 61 61 58 58 61 61
0 0 0 0 0 0 0 0 6 6 3 13 23 26 32 35 42 39 39 39 35 39 39 42 52 52 48 45 45 45 52 52 48 48 48 55 48 52 52 52 52 48 48 52 58 55 61 58 58
0 0 0 0 0 0 0 3 10 10 6 16 16 23 39 35 35 45 39 35 39 39 39 39 39 48 48 45 48 52 48 52 45 48 45 45 45 45 48 52 52 45 45 48 48 48 48 48 52
Height
5900 5899 5899 5900 5900 5901 5900 5900 5899 5897 5896 5895 5894 5893 5892 5892 5893 5894 5891 5889 5889 5888 5888 5888 5887 5887 5887 5887 5887 5886 5886 5886 5886 5887 5888 5888 5889 5889 5890 5890 5890 5891 5891 5892 5892 5893 5893 5894 5894
5902 5902 5902 5902 5903 5903 5902 5901 5900 5899 5898 5897 5896 5895 5894 5893 5893 5892 5891 5891 5890 5889 5889 5889 5888 5888 5888 5888 5888 5888 5887 5887 5888 5888 5889 5889 5889 5890 5890 5891 5891 5891 5892 5892 5893 5893 5894 5894 5895
5904 5903 5904 5904 5905 5905 5904 5903 5901 5900 5899 5898 5897 5897 5896 5895 5894 5893 5893 5892 5891 5891 5890 5890 5889 5889 5889 5889 5889 5889 5888 5889 5889 5889 5889 5890 5890 5891 5891 5891 5892 5892 5892 5892 5893 5893 5894 5894 5895
5906 5906 5907 5907 5907 5906 5905 5904 5903 5902 5901 5900 5899 5898 5897 5896 5895 5895 5894 5893 5892 5892 5891 5891 5890 5890 5890 5890 5890 5890 5890 5890 5890 5890 5890 5890 5891 5891 5891 5892 5892 5893 5893 5893 5894 5894 5894 5895 5895
5908 5908 5909 5910 5909 5908 5907 5906 5905 5904 5903 5901 5901 5900 5899 5898 5897 5896 5895 5894 5893 5893 5893 5892 5891 5891 5891 5891 5890 5890 5891 5891 5891 5891 5891 5891 5891 5892 5892 5892 5892 5893 5893 5894 5894 5895 5895 5895 5895
5911 5911 5913 5912 5910 5909 5908 5907 5906 5905 5904 5903 5902 5901 5900 5899 5898 5897 5896 5895 5895 5894 5893 5893 5893 5892 5892 5891 5891 5891 5891 5891 5892 5892 5892 5892 5892 5892 5892 5892 5893 5893 5894 5894 5894 5895 5895 5895 5896
5914 5914 5914 5913 5912 5911 5910 5909 5908 5907 5906 5905 5904 5903 5902 5901 5900 5899 5898 5897 5896 5896 5895 5894 5894 5893 5893 5892 5892 5892 5892 5892 5892 5892 5892 5892 5893 5893 5893 5893 5893 5893 5894 5894 5895 5895 5895 5895 5896
5915 5916 5916 5915 5914 5913 5912 5910 5909 5908 5907 5906 5905 5904 5903 5902 5901 5900 5899 5898 5898 5897 5896 5896 5895 5895 5894 5894 5893 5893 5893 5893 5893 5893 5893 5893 5893 5893 5893 5893 5894 5894 5894 5894 5895 5895 5895 5896 5896
5917 5919 5918 5917 5916 5914 5913 5912 5911 5909 5908 5907 5906 5905 5904 5903 5902 5901 5900 5899 5899 5898 5897 5896 5896 5895 5895 5895 5894 5894 5893 5893 5893 5893 5893 5893 5893 5893 5894 5894 5894 5894 5894 5895 5895 5895 5895 5895 5896
5919 5920 5919 5918 5917 5915 5914 5913 5912 5911 5910 5909 5907 5906 5905 5904 5903 5902 5901 5900 5899 5899 5898 5897 5897 5896 5895 5895 5895 5894 5894 5894 5894 5894 5894 5894 5894 5894 5894 5894 5894 5894 5894 5895 5895 5895 5895 5895 5896
5921 5921 5920 5919 5918 5917 5916 5914 5913 5912 5911 5910 5909 5908 5906 5905 5904 5903 5902 5901 5900 5899 5899 5898 5897 5897 5896 5895 5895 5894 5894 5894 5894 5894 5894 5894 5894 5894 5894 5894 5894 5894 5894 5895 5895 5895 5895 5895 5895
5923 5922 5921 5920 5919 5918 5917 5916 5915 5914 5913 5911 5910 5909 5907 5906 5905 5904 5903 5902 5901 5900 5899 5898 5898 5897 5896 5896 5895 5895 5895 5894 5894 5894 5894 5894 5894 5894 5894 5894 5894 5894 5894 5894 5895 5895 5895 5895 5894
5924 5923 5922 5922 5921 5920 5919 5917 5916 5915 5914 5912 5911 5910 5908 5907 5906 5905 5903 5902 5901 5900 5900 5899 5898 5897 5897 5896 5896 5895 5895 5894 5894 5894 5894 5894 5894 5894 5894 5894 5894 5894 5894 5894 5894 5895 5895 5895 5895
5925 5924 5924 5923 5922 5921 5920 5919 5918 5916 5915 5913 5912 5911 5909 5908 5907 5905 5904 5903 5902 5901 5900 5899 5899 5898 5897 5897 5896 5896 5895 5894 5894 5894 5894 5894 5894 5894 5894 5894 5894 5894 5894 5894 5894 5894 5894 5894 5894
5926 5926 5926 5924 5923 5922 5921 5920 5919 5917 5916 5914 5913 5911 5910 5909 5907 5906 5905 5904 5903 5901 5901 5900 5899 5898 5897 5897 5896 5896 5895 5894 5894 5894 5894 5894 5894 5893 5893 5893 5893 5893 5893 5893 5893 5894 5894 5893 5893
5927 5928 5928 5926 5924 5923 5924 5922 5920 5918 5917 5915 5913 5912 5910 5909 5908 5906 5905 5904 5903 5902 5901 5899 5899 5898 5898 5897 5896 5895 5895 5894 5894 5894 5894 5893 5893 5893 5893 5893 5893 5893 5893 5893 5893 5893 5892 5892 5892
5929 5929 5928 5927 5925 5924 5924 5923 5921 5919 5917 5915 5914 5912 5911 5909 5908 5907 5905 5904 5903 5902 5901 5899 5899 5898 5897 5897 5896 5895 5895 5894 5893 5893 5893 5893 5893 5892 5892 5892 5892 5892 5892 5892 5892 5892 5891 5891 5891
5929 5929 5928 5927 5926 5925 5924 5923 5921 5919 5918 5916 5914 5913 5911 5910 5908 5907 5905 5904 5903 5901 5900 5899 5899 5897 5897 5896 5896 5895 5894 5893 5893 5893 5892 5892 5892 5892 5891 5891 5891 5891 5891 5891 5891 5890 5890 5890 5889
5927 5928 5927 5927 5925 5925 5924 5923 5922 5920 5918 5916 5915 5913 5911 5910 5908 5906 5905 5903 5902 5901 5900 5899 5898 5897 5896 5895 5895 5894 5893 5893 5892 5892 5891 5891 5891 5891 5890 5890 5890 5890 5890 5889 5889 5889 5888 5888 5887
5926 5926 5926 5926 5925 5924 5923 5922 5921 5920 5918 5917 5915 5913 5911 5909 5907 5906 5904 5903 5901 5900 5899 5898 5897 5896 5895 5894 5893 5893 5892 5891 5891 5891 5890 5890 5890 5889 5889 5889 5889 5888 5888 5888 5887 5887 5886 5886 5885
5924 5925 5925 5924 5924 5923 5923 5922 5921 5919 5918 5916 5914 5912 5910 5909 5907 5905 5903 5902 5900 5899 5898 5897 5896 5895 5894 5893 5892 5891 5890 5890 5889 5889 5889 5888 5888 5888 5887 5887 5887 5887 5886 5886 5885 5885 5884 5884 5883
5922 5922 5922 5922 5922 5923 5922 5922 5920 5918 5916 5915 5913 5911 5909 5907 5906 5904 5902 5901 5899 5898 5896 5895 5894 5893 5892 5891 5890 5889 5889 5888 5887 5887 5887 5886 5886 5885 5885 5885 5885 5884 5884 5884 5883 5883 5882 5882 5881
5919 5920 5919 5920 5920 5921 5920 5920 5920 5917 5915 5913 5911 5909 5907 5906 5904 5902 5901 5899 5897 5896 5894 5893 5892 5890 5889 5889 5888 5887 5886 5885 5885 5885 5884 5884 5884 5883 5883 5883 5882 5882 5882 5881 5880 5880 5880 5879 5878
5916 5917 5917 5917 5918 5919 5918 5918 5917 5915 5913 5911 5909 5907 5905 5903 5902 5900 5899 5897 5896 5894 5893 5891 5890 5889 5887 5886 5885 5884 5883 5882 5882 5882 5882 5881 5881 5880 5880 5880 5879 5879 5879 5878 5878 5877 5877 5876 5875
5913 5915 5916 5917 5917 5917 5915 5914 5915 5912 5910 5909 5907 5905 5903 5901 5899 5898 5896 5895 5893 5892 5890 5889 5888 5886 5885 5884 5882 5881 5880 5880 5879 5879 5878 5878 5878 5877 5877 5877 5876 5876 5875 5875 5874 5874 5873 5872 5872
5910 5912 5914 5915 5915 5914 5911 5911 5911 5909 5907 5906 5904 5902 5900 5898 5897 5895 5893 5892 5890 5889 5887 5886 5885 5883 5882 5881 5880 5879 5878 5877 5876 5876 5875 5875 5875 5874 5874 5873 5872 5872 5872 5871 5871 5870 5869 5869 5868
5906 5907 5909 5910 5909 5909 5909 5907 5906 5905 5904 5902 5901 5899 5897 5895 5893 5892 5890 5888 5887 5885 5884 5883 5881 5880 5879 5878 5877 5875 5875 5874 5873 5872 5872 5871 5871 5870 5870 5869 5868 5867 5867 5866 5866 5865 5864 5864 5863
5902 5903 5904 5905 5905 5905 5905 5904 5903 5901 5900 5899 5897 5895 5893 5891 5890 5888 5886 5885 5883 5881 5880 5879 5878 5877 5876 5874 5873 5872 5871 5870 5869 5868 5868 5867 5866 5865 5865 5864 5863 5863 5862 5861 5860 5860 5859 5858 5857
5897 5898 5898 5899 5900 5901 5902 5903 5899 5897 5895 5894 5893 5891 5889 5888 5886 5884 5882 5881 5879 5878 5876 5875 5874 5873 5872 5870 5869 5868 5867 5866 5865 5864 5863 5862 5861 5860 5859 5859 5858 5857 5856 5856 5855 5854 5853 5852 5851
5891 5892 5893 5895 5895 5895 5896 5899 5894 5892 5891 5889 5888 5887 5885 5883 5881 5880 5878 5877 5875 5873 5872 5871 5869 5868 5867 5866 5865 5863 5862 5861 5860 5859 5858 5857 5856 5855 5854 5853 5853 5852 5851 5850 5849 5848 5847 5846 5845
Wind_Speed
16 16 15 15 16 15 15 15 15 15 14 14 13 12 12 12 11 10 10 9 8 7 7 7 7 6 7 7 7 7 7 9 9 9 9 8 8 7 7 7 7 7 7 7 7 7 6 6 6
16 15 15 15 16 13 14 15 15 15 14 14 13 12 12 11 11 10 10 9 8 7 7 7 6 6 6 6 7 7 8 8 8 9 8 8 8 7 6 6 6 6 6 6 6 6 6 6 5
15 15 14 16 14 13 14 14 14 14 14 14 13 12 12 11 10 10 9 8 8 7 7 7 6 5 6 6 7 6 7 7 6 7 7 7 7 7 6 6 6 5 5 6 6 6 6 5 5
15 15 16 15 14 13 13 13 13 14 14 13 12 12 11 11 10 9 8 8 7 7 6 6 5 5 6 6 7 7 7 6 6 6 6 7 7 7 7 6 6 5 6 6 6 6 6 5 5
14 15 15 14 13 13 13 13 13 13 13 12 12 12 11 11 10 9 8 8 7 6 6 5 5 5 5 5 6 6 6 6 5 6 5 6 6 6 6 6 6 5 5 5 5 6 5 5 5
15 15 13 12 12 13 13 12 12 12 12 12 11 11 11 10 10 9 9 8 7 6 5 5 5 5 5 5 6 6 6 6 6 6 5 5 6 6 6 6 6 5 5 5 5 5 4 5 4
14 14 13 12 11 12 12 12 12 11 11 11 10 10 10 9 9 8 8 7 7 6 5 5 5 4 4 5 5 5 5 6 6 5 5 6 5 6 6 6 6 5 5 5 4 4 4 5 4
14 13 12 11 11 11 11 11 11 11 10 10 10 10 9 8 8 7 7 6 6 5 5 4 4 4 3 3 4 4 4 5 5 5 5 5 5 6 6 5 5 5 5 5 4 4 5 5 4
13 12 9 10 10 10 10 11 10 10 10 9 9 9 9 7 7 6 6 5 5 5 5 4 4 3 3 3 3 3 3 3 3 3 3 4 5 5 5 4 4 4 5 5 4 4 4 4 5
13 11 11 11 10 10 10 10 10 10 10 9 8 8 8 7 6 6 5 5 4 4 4 3 3 3 3 3 3 3 2 2 2 2 3 3 3 4 4 4 3 4 4 4 4 4 5 5 5
10 9 9 10 10 10 10 9 9 9 9 8 7 7 7 6 5 5 5 5 4 3 3 3 3 2 2 2 2 2 2 2 2 2 2 2 3 3 3 3 3 3 3 4 4 4 4 4 4
9 8 8 8 9 9 10 9 9 8 7 7 6 6 7 6 5 5 5 5 4 3 3 3 3 2 2 2 2 2 1 1 2 2 2 2 3 3 3 3 3 3 3 3 4 3 4 3 3
7 7 7 8 9 9 8 8 8 8 6 6 6 6 6 6 5 4 4 4 4 4 3 2 2 2 1 1 1 1 1 1 2 2 2 2 2 3 3 3 3 3 3 3 4 4 4 4 3
6 7 8 8 8 8 8 8 8 8 7 6 7 6 5 5 5 5 4 4 3 3 2 2 1 2 1 0 0 1 1 1 2 3 2 2 3 3 3 3 3 3 3 4 4 5 6 5 5
5 6 7 6 6 7 8 8 7 8 8 7 7 7 5 4 4 4 4 3 3 2 1 1 0 0 1 1 1 1 1 1 2 2 3 3 3 4 3 3 3 4 4 4 5 6 6 6 6
3 5 4 4 5 5 7 7 7 7 7 7 7 7 5 4 4 4 4 3 3 3 2 2 1 1 1 1 1 1 1 2 2 3 3 3 4 4 4 3 3 3 4 4 5 6 7 7 7
1 2 1 2 3 5 6 6 6 7 7 8 8 8 6 5 4 4 4 4 4 4 3 3 2 2 2 3 3 3 3 3 3 3 3 3 4 4 4 4 4 4 4 4 5 6 7 7 8
3 2 1 2 2 4 5 6 6 7 7 7 8 8 7 6 5 5 5 5 5 5 4 3 3 3 3 4 4 4 3 3 3 3 4 4 4 4 4 4 4 5 5 5 5 7 8 9 9
5 4 3 4 4 5 5 6 6 6 7 7 8 8 7 6 6 6 5 5 6 6 6 5 5 5 5 5 5 5 5 5 5 4 4 5 5 5 5 5 5 6 6 6 6 7 8 9 10
6 6 6 7 6 6 6 7 7 7 7 8 8 8 8 8 7 6 6 7 7 7 7 6 6 6 6 6 6 6 6 6 6 6 6 6 6 6 6 6 6 6 6 6 6 7 8 9 10
8 8 8 8 7 7 8 7 7 8 8 8 8 9 8 9 8 7 7 8 8 8 8 8 8 8 8 8 8 8 8 8 8 8 8 8 7 7 7 7 7 7 7 8 8 8 9 9 10
9 9 9 9 8 8 8 8 9 9 10 10 10 10 10 9 9 8 8 9 9 9 9 9 9 9 9 9 10 9 9 9 9 9 9 8 8 8 8 8 8 9 9 9 9 10 10 10 11
11 10 10 10 9 9 8 8 10 10 11 11 11 11 11 10 9 9 10 10 10 10 10 10 9 9 9 10 11 11 11 11 10 10 10 9 9 9 9 9 10 10 10 11 11 11 11 12 12
12 11 11 10 10 10 9 9 10 11 11 11 11 11 11 11 11 10 11 11 12 12 11 10 10 10 10 11 11 11 11 11 11 10 10 10 10 11 11 11 11 11 11 12 13 13 13 13 13
13 11 11 10 10 11 12 11 11 11 11 11 11 11 11 11 11 11 12 12 12 12 12 11 11 11 12 12 12 12 12 12 11 11 11 11 11 11 12 12 12 13 13 14 14 15 15 15 15
14 12 12 12 11 12 13 12 12 12 12 13 13 13 13 13 13 13 13 13 13 13 13 12 12 12 12 13 13 13 13 13 12 12 13 13 13 13 13 14 14 15 15 16 16 17 17 17 17
15 15 14 14 14 13 14 14 13 12 13 14 14 14 14 15 14 14 14 14 14 14 14 14 14 14 13 14 14 14 14 13 13 14 14 14 15 15 15 16 16 16 17 18 19 19 19 19 18
17 17 16 15 15 14 15 15 14 15 15 15 15 15 15 16 16 16 15 15 14 14 15 15 15 14 14 14 15 14 15 14 14 15 15 15 16 16 17 17 17 18 19 20 20 21 21 21 21
18 18 17 17 17 15 15 16 16 17 17 17 16 15 16 16 16 17 17 17 16 16 15 15 15 15 15 15 16 16 16 16 16 16 17 17 17 17 18 18 18 19 19 20 21 21 21 22 22
20 20 19 18 19 18 17 18 18 18 18 18 17 17 17 17 17 17 17 17 17 17 16 16 16 16 16 16 16 17 17 18 18 18 19 19 19 19 19 19 20 20 21 21 21 22 22 22 22
Wind_Direction
86 83 83 85 83 85 88 88 86 83 81 81 81 80 82 82 82 83 86 90 94 95 100 101 96 107 115 118 122 125 127 125 126 134 135 133 131 131 130 131 132 137 134 136 141 143 147 153 154
87 85 84 85 87 88 88 88 86 83 81 79 78 79 82 82 82 84 85 88 89 93 95 93 93 103 118 124 125 130 128 123 124 127 131 133 133 133 133 136 133 134 137 142 144 146 150 151 157
87 85 84 85 90 93 91 88 86 84 81 78 76 77 80 82 81 83 85 84 84 88 90 90 93 98 107 119 126 132 131 127 129 131 135 137 139 140 140 145 148 145 146 146 149 152 152 156 158
88 88 85 87 88 91 90 87 85 84 79 77 75 76 79 79 79 80 84 82 84 87 91 90 88 90 100 113 127 134 137 136 134 136 138 142 144 145 145 149 147 151 148 146 147 153 152 150 146
90 88 83 85 88 88 86 83 82 80 77 75 73 74 77 76 76 78 81 79 83 88 92 88 86 85 95 107 127 133 133 134 141 144 144 144 144 146 149 152 151 156 152 150 150 155 157 156 155
88 86 86 88 87 86 85 80 80 79 76 74 71 71 74 74 74 75 77 77 77 81 90 91 94 95 96 107 121 132 132 136 143 144 143 140 142 142 140 143 145 150 149 152 156 158 159 167 162
89 88 87 87 84 83 82 78 75 74 73 71 68 66 68 70 70 71 73 76 77 80 90 98 101 95 105 115 122 131 138 142 148 146 143 142 141 141 139 141 148 155 162 165 165 167 167 165 163
89 88 85 82 81 80 78 75 72 72 72 68 65 63 65 68 67 66 67 70 78 81 87 95 97 94 106 117 134 138 142 143 142 142 144 141 146 142 140 142 152 163 166 170 174 179 178 180 177
86 85 85 84 81 78 75 71 71 70 67 63 61 61 61 69 70 65 62 62 73 76 83 87 88 93 100 113 127 135 147 147 145 150 148 133 139 141 140 140 147 156 169 179 181 187 187 196 197
85 86 82 80 78 76 72 69 68 65 61 56 56 57 56 65 68 63 63 60 65 67 70 79 75 87 96 109 132 145 150 167 160 150 141 131 142 151 149 147 157 167 180 187 192 198 201 206 211
84 83 80 76 74 72 69 65 61 55 53 51 51 52 52 57 59 53 55 54 57 61 63 72 74 84 85 101 138 155 164 192 184 156 149 156 168 175 177 174 177 186 198 198 200 209 213 219 223
86 80 74 73 71 67 66 61 56 50 48 45 43 44 47 49 51 49 46 44 44 46 58 69 82 86 85 103 126 134 150 182 198 198 190 190 193 194 194 203 207 207 205 202 208 218 222 229 228
88 79 71 71 67 63 60 55 49 46 47 44 35 29 28 40 43 42 42 40 40 47 56 54 64 66 76 113 132 142 174 197 193 193 198 209 218 215 218 230 233 227 213 213 218 222 229 242 253
91 84 75 69 63 55 51 46 41 39 36 34 29 23 22 31 36 35 35 31 32 42 47 59 61 53 47 60 228 271 277 237 213 211 215 225 237 232 230 237 236 230 230 232 231 232 236 244 251
92 80 69 63 55 47 42 38 32 31 28 25 21 15 14 15 14 18 22 15 13 16 5 343 323 26 50 20 318 296 293 278 239 226 235 244 246 240 234 237 241 239 236 235 236 236 241 246 250
86 67 56 43 45 39 39 27 21 20 17 15 15 11 8 0 345 342 351 351 352 349 343 332 302 278 292 302 306 320 303 278 252 234 244 251 252 254 253 249 248 253 251 250 243 244 248 248 253
86 84 53 15 18 16 25 19 13 15 10 8 9 6 0 353 338 329 327 327 321 317 318 316 308 292 289 292 295 309 314 281 254 247 250 260 260 263 263 261 259 264 265 263 256 251 252 252 256
217 223 277 305 332 347 359 6 6 15 14 12 8 1 357 350 342 330 320 318 315 310 307 306 302 297 290 288 288 300 296 290 270 265 256 262 264 268 275 270 264 268 271 269 266 258 259 260 261
228 240 263 283 300 324 339 350 351 356 4 4 360 356 354 349 337 333 324 318 314 312 309 311 307 299 288 285 286 288 284 283 281 273 266 269 267 269 271 270 270 272 275 276 274 267 263 264 264
243 249 260 275 287 311 324 332 339 339 346 352 351 349 344 339 337 330 321 319 317 312 308 306 305 301 294 285 283 283 280 282 279 274 272 273 271 269 269 268 271 274 276 277 280 280 277 273 271
241 244 253 263 279 296 309 321 325 329 332 337 339 339 339 336 329 324 322 318 314 312 305 299 300 296 293 289 285 278 273 274 273 273 273 275 272 269 266 270 271 273 277 278 281 282 285 284 279
247 250 255 261 270 283 289 300 308 315 321 323 325 325 326 327 323 316 316 313 307 306 304 300 298 296 288 285 284 278 273 272 270 271 272 273 268 263 265 266 270 273 276 277 278 281 283 284 284
249 253 260 263 266 271 277 284 297 302 309 313 315 315 315 317 314 308 307 308 307 305 302 296 295 295 290 284 282 277 274 269 270 271 270 270 269 268 268 267 271 275 277 278 278 279 281 282 284
251 255 262 267 269 269 273 276 287 294 298 304 309 313 314 314 308 303 301 302 303 304 301 297 294 294 293 291 288 281 278 269 269 268 268 269 269 269 269 270 272 275 276 278 279 279 280 282 283
252 254 266 271 269 270 277 277 278 287 294 298 304 310 313 313 309 304 301 302 300 299 298 295 292 292 293 293 292 286 279 274 276 271 267 270 272 271 271 271 274 274 275 277 278 279 278 279 281
251 254 255 263 269 276 282 281 282 285 290 296 299 302 308 309 306 305 304 303 299 296 294 292 291 290 290 290 290 286 283 279 278 276 275 274 273 273 275 276 276 276 276 276 277 277 278 279 281
252 256 259 262 265 272 277 283 285 285 290 295 297 299 304 305 304 304 304 303 299 294 291 288 288 288 289 291 291 288 284 282 281 277 276 277 276 275 274 276 276 276 277 277 277 278 278 279 280
251 257 260 260 265 271 276 279 282 286 290 294 295 295 297 299 300 302 302 300 296 293 290 288 289 289 289 290 289 286 283 281 279 279 278 279 279 277 275 274 277 277 278 279 279 278 276 277 278
254 255 257 259 261 267 274 276 282 282 286 289 290 291 293 295 297 298 298 297 295 292 290 289 287 291 291 290 288 285 282 281 279 279 281 281 280 278 277 276 276 278 279 280 280 280 279 278 278
256 257 258 261 266 268 268 273 278 281 286 288 286 287 289 292 295 296 295 295 295 293 291 289 286 287 288 288 289 287 283 281 280 279 279 280 279 279 280 279 278 278 279 280 281 281 280 280 278